[[{"header":{"parameterUnit":"m.s-1","parameterCategory":1,"la1":30.2991,"la2":30.254,"lo1":-89.0895,"lo2":-89.0444,"dy":0.0017,"dx":0.0017,"nx":28,"ny":28,"refTime":"2023-11-04T09:00:00:Z","depth":0,"parameterNumber":2,"parameterNumberName":"U-component_of_WINDS"},"data":[0,0,0,0,0,0,0,0,0,0,0,0,0,0,0,0,0,0,0,0,0,0,0,0,0,0,0,0,0,0,0,0,0,0,0,0,0,0,0,0,0,0,0,0,0,0,0,0,0,0,0,0,0,0,0,0,0,0,-3.036,-3.036,0,-3.0321,-3.0321,-3.0321,-3.0189,-3.0186,-3.0183,-3.018,-3.0143,-3.0144,-3.0146,0,0,0,0,0,0,0,0,0,0,0,0,0,-3.0324,-3.0326,-3.036,-3.036,-3.036,-3.0321,-3.0321,-3.032,-3.019,-3.0186,-3.0182,-3.0179,-3.0142,-3.0144,-3.0146,0,0,0,0,0,0,0,0,0,0,0,0,0,-3.0318,-3.0326,-3.0361,-3.029,-3.0283,-3.0322,-3.0321,-3.032,-3.019,-3.0186,-3.0181,-3.0177,-3.0141,-3.0144,-3.0147,-3.0252,0,0,-3.0155,-3.0156,0,0,0,0,0,0,0,0,-3.0319,-3.032,-3.03,-3.0295,-3.0287,-3.0255,-3.0294,-3.0297,-3.0191,-3.0226,-3.018,-3.0175,-3.0184,-3.0183,-3.0185,-3.025,-3.0248,-3.0155,-3.0156,-3.0158,-3.0158,0,0,0,0,0,0,0,-3.0319,-3.0321,-3.0345,-3.03,-3.0292,-3.0261,-3.0255,-3.0294,-3.023,-3.0222,-3.0213,-3.021,-3.0179,-3.0183,-3.0183,-3.0248,-3.0155,-3.0157,-3.0159,-3.016,-3.0398,-3.0403,0,0,0,0,0,0,-3.033,-3.0322,-3.0346,-3.0344,-3.0292,-3.0265,-3.0258,-3.027,-3.0229,-3.0219,-3.0213,-3.0204,-3.0181,-3.0181,-3.0182,-3.0303,-3.0158,-3.016,-3.0162,-3.0393,-3.0399,-3.0404,0,0,0,0,0,0,-3.0329,-3.0333,-3.0348,-3.033,-3.033,-3.027,-3.0284,-3.0272,-3.0275,-3.0223,-3.0211,-3.0229,-3.0177,-3.0178,-3.0235,-3.03,-3.0161,-3.0164,-3.0388,-3.0395,-3.0402,-3.0546,0,0,0,0,0,0,-3.0329,-3.0334,-3.0372,-3.0332,-3.0331,-3.0402,-3.0288,-3.0274,-3.028,-3.0267,-3.0234,-3.0224,-3.0174,-3.0232,-3.0238,-3.0301,-3.0166,-3.0382,-3.0391,-3.0399,-3.0536,-3.0558,-3.0576,0,0,0,0,0,-3.0328,-3.0415,-3.0375,-3.0379,-3.0378,-3.0406,-3.0405,-3.0345,-3.0285,-3.0324,-3.0291,-3.0225,-3.0292,-3.0239,-3.0245,-3.0309,-3.0377,-3.0388,-3.0399,-3.0527,-3.0553,-3.0576,0,0,0,0,0,0,-3.0464,-3.0408,-3.0363,-3.0439,-3.0428,-3.0383,-3.043,-3.0375,-3.0381,-3.0368,-3.0294,-3.0288,-3.0356,-3.0338,-3.0281,-3.041,-3.0324,-3.0336,-3.0419,-3.0444,-3.0464,-3.0468,-3.0168,0,0,0,0,0,-3.0503,-3.053,-3.0479,-3.0551,-3.0548,-3.0491,-3.05,-3.0455,-3.0441,-3.0436,-3.0406,-3.0396,-3.0414,-3.0428,-3.0442,-3.0532,-3.0524,-3.058,-3.06,-3.0617,-3.0629,-3.0677,-3.0702,-3.0439,-3.0439,-3.0439,0,0,-3.0584,-3.0556,-3.0578,-3.0578,-3.0564,-3.0594,-3.0488,-3.0524,-3.0546,-3.0441,-3.0494,-3.0472,-3.0455,-3.0531,-3.0562,-3.0518,-3.0699,-3.0631,-3.0645,-3.0647,-3.0691,-3.0716,-3.0738,-3.0447,-3.0445,-3.0444,0,0,-3.0747,-3.0728,-3.0786,-3.0775,-3.0755,-3.0716,-3.0731,-3.0695,-3.0676,-3.0728,-3.065,-3.0676,-3.0709,-3.0701,-3.0701,-3.0862,-3.0803,-3.0869,-3.0976,-3.1024,-3.1045,-3.1063,-3.1122,-3.1144,-3.0881,-3.0881,-3.0881,0,-3.085,-3.0891,-3.0824,-3.0865,-3.0869,-3.0775,-3.0835,-3.0827,-3.0813,-3.0818,-3.0768,-3.0809,-3.0791,-3.0863,-3.0903,-3.0906,-3.0921,-3.0873,-3.1047,-3.1064,-3.108,-3.1136,-3.1158,-3.0889,-3.0888,-3.0888,-3.0887,0,-3.1019,-3.105,-3.11,-3.1089,-3.1097,-3.1148,-3.1089,-3.1106,-3.1061,-3.1028,-3.1083,-3.1058,-3.1066,-3.108,-3.1035,-3.1147,-3.112,-3.106,-3.0972,-3.1114,-3.1166,-3.1186,-3.0901,-3.0898,-3.0896,-3.0894,0,0,-3.1267,-3.1219,-3.1238,-3.1233,-3.1205,-3.1227,-3.1274,-3.1282,-3.1299,-3.1292,-3.1331,-3.1362,-3.1306,-3.1307,-3.126,-3.1303,-3.1434,-3.1237,-3.1235,-3.1276,-3.1558,-3.1604,-3.163,-3.1394,-3.1398,-3.1401,-3.156,0,-3.1422,-3.1499,-3.1441,-3.1528,-3.1556,-3.1468,-3.1509,-3.1498,-3.1469,-3.1489,-3.1457,-3.148,-3.1404,-3.1405,-3.1442,-3.141,-3.149,-3.1398,-3.1431,-3.1433,-3.1439,-3.1656,-3.1705,-3.1856,-3.1579,-3.1582,-3.1585,0,-3.1613,-3.1616,-3.1707,-3.1674,-3.1684,-3.1722,-3.1725,-3.1745,-3.173,-3.1706,-3.1708,-3.1651,-3.1696,-3.161,-3.1672,-3.1611,-3.1621,-3.1607,-3.1612,-3.1614,-3.1518,-3.1665,-3.1902,-3.1926,-3.1615,-3.1613,-3.161,0,-3.1787,-3.1813,-3.1871,-3.1869,-3.1832,-3.1861,-3.1847,-3.1828,-3.1837,-3.184,-3.1845,-3.1853,-3.1859,-3.1867,-3.1815,-3.1756,-3.1885,-3.1793,-3.1867,-3.1869,-3.1899,-3.1898,-3.2143,-3.1904,-3.1904,-3.1903,-3.1903,0,-3.1967,-3.2027,-3.1948,-3.1985,-3.2049,-3.1982,-3.2048,-3.2024,-3.2009,-3.2039,-3.1964,-3.1994,-3.1923,-3.1946,-3.1906,-3.1965,-3.1967,-3.195,-3.1939,-3.1958,-3.196,-3.1964,-3.1953,-3.1909,-3.1908,-3.1907,-3.1906,0,-3.2172,-3.2121,-3.2179,-3.214,-3.2131,-3.2181,-3.2147,-3.218,-3.2146,-3.2186,-3.2192,-3.2139,-3.2163,-3.2112,-3.2129,-3.2101,-3.2185,-3.2157,-3.2191,-3.2183,-3.226,-3.2255,-3.2517,-3.2549,-3.2289,-3.2291,-3.2293,0,-3.229,-3.2334,-3.23,-3.2315,-3.2305,-3.233,-3.2339,-3.2275,-3.2287,-3.2275,-3.2309,-3.2327,-3.2338,-3.2381,-3.2345,-3.2359,-3.2331,-3.2422,-3.2332,-3.235,-3.2334,-3.2333,-3.2338,-3.2441,-3.2444,-3.2446,-3.2449,0,-3.2507,-3.2481,-3.2496,-3.2504,-3.2516,-3.2519,-3.2516,-3.2533,-3.2465,-3.2484,-3.2507,-3.2516,-3.2534,-3.2553,-3.2558,-3.2545,-3.2487,-3.2477,-3.2495,-3.2516,-3.2534,-3.2527,-3.2243,-3.2471,-3.2469,-3.2467,-3.2466,-3.2465,-3.2673,-3.2709,-3.2691,-3.2711,-3.2702,-3.2702,-3.2731,-3.2701,-3.2719,-3.2729,-3.269,-3.2723,-3.2709,-3.2709,-3.2702,-3.2728,-3.2687,-3.2713,-3.272,-3.2728,-3.2741,-3.2529,-3.2729,-3.2728,-3.2727,-3.2727,-3.2726,0,-3.2888,-3.2872,-3.2891,-3.289,-3.2907,-3.2849,-3.2844,-3.2862,-3.2892,-3.2883,-3.2896,-3.2924,-3.2943,-3.2909,-3.2923,-3.295,-3.2924,-3.2956,-3.2954,-3.2952,-3.2776,-3.276,-3.2977,-3.2977,-3.2977,-3.2977,-3.2977,-3.2977,-3.3001,-3.3059,-3.303,-3.3084,-3.3067,-3.3099,-3.3101,-3.3101,-3.3094,-3.3129,-3.3144,-3.3122,-3.3103,-3.3115,-3.3131,-3.312,-3.313,-3.3172,-3.3153,-3.2989,-3.2964,-3.2941,-3.2925,-3.3174,-3.3174,-3.3326,-3.3328,-3.3329]},{"header":{"parameterUnit":"m.s-1","parameterCategory":1,"la1":30.2991,"la2":30.254,"lo1":-89.0895,"lo2":-89.0444,"dy":0.0017,"dx":0.0017,"nx":28,"ny":28,"refTime":"2023-11-04T09:00:00:Z","depth":0,"parameterNumber":3,"parameterNumberName":"V-component_of_WINDS"},"data":[0,0,0,0,0,0,0,0,0,0,0,0,0,0,0,0,0,0,0,0,0,0,0,0,0,0,0,0,0,0,0,0,0,0,0,0,0,0,0,0,0,0,0,0,0,0,0,0,0,0,0,0,0,0,0,0,0,0,-0.299,-0.299,0,-0.3023,-0.3024,-0.3024,-0.2999,-0.2998,-0.2997,-0.2996,-0.3032,-0.3033,-0.3035,0,0,0,0,0,0,0,0,0,0,0,0,0,-0.2906,-0.2908,-0.299,-0.299,-0.2991,-0.3023,-0.3024,-0.3024,-0.2999,-0.2998,-0.2996,-0.2995,-0.3031,-0.3033,-0.3036,0,0,0,0,0,0,0,0,0,0,0,0,0,-0.2941,-0.2908,-0.299,-0.2982,-0.2982,-0.3023,-0.3024,-0.3024,-0.2999,-0.2998,-0.2996,-0.2995,-0.303,-0.3033,-0.3036,-0.3087,0,0,-0.3045,-0.3046,0,0,0,0,0,0,0,0,-0.2939,-0.2944,-0.2983,-0.2983,-0.2982,-0.3005,-0.3007,-0.3045,-0.3,-0.2993,-0.2996,-0.2994,-0.3024,-0.3028,-0.3037,-0.3089,-0.309,-0.3045,-0.3047,-0.3048,-0.3049,0,0,0,0,0,0,0,-0.2937,-0.2943,-0.3003,-0.2984,-0.2983,-0.2977,-0.2981,-0.3014,-0.3017,-0.2993,-0.2991,-0.2996,-0.3024,-0.3035,-0.3038,-0.3091,-0.3045,-0.3048,-0.305,-0.3051,-0.3187,-0.3188,0,0,0,0,0,0,-0.2935,-0.2941,-0.3002,-0.3004,-0.2956,-0.298,-0.2984,-0.3,-0.3017,-0.3018,-0.2997,-0.2994,-0.303,-0.3035,-0.3039,-0.3102,-0.3048,-0.3051,-0.3053,-0.3185,-0.3187,-0.3189,0,0,0,0,0,0,-0.2933,-0.2941,-0.3001,-0.2972,-0.2979,-0.2983,-0.3001,-0.3001,-0.3012,-0.302,-0.302,-0.3008,-0.3029,-0.3035,-0.3076,-0.3103,-0.3052,-0.3055,-0.3183,-0.3185,-0.3188,-0.3226,0,0,0,0,0,0,-0.2931,-0.294,-0.296,-0.2973,-0.2981,-0.3036,-0.3003,-0.3003,-0.3017,-0.3014,-0.303,-0.3031,-0.3028,-0.3071,-0.3078,-0.3106,-0.3057,-0.318,-0.3184,-0.3187,-0.3223,-0.323,-0.3236,0,0,0,0,0,-0.2928,-0.2969,-0.2961,-0.2968,-0.3005,-0.3038,-0.3043,-0.3039,-0.3019,-0.3039,-0.3044,-0.303,-0.3098,-0.3076,-0.3084,-0.3112,-0.3179,-0.3183,-0.3187,-0.322,-0.3228,-0.3236,0,0,0,0,0,0,-0.296,-0.2971,-0.2962,-0.3008,-0.3022,-0.3034,-0.3059,-0.3048,-0.3068,-0.3065,-0.3059,-0.3063,-0.3105,-0.3112,-0.3087,-0.3163,-0.3135,-0.3141,-0.3157,-0.3166,-0.3172,-0.3171,-0.306,0,0,0,0,0,-0.2973,-0.2998,-0.3006,-0.3046,-0.3054,-0.3055,-0.3069,-0.3064,-0.3079,-0.3085,-0.3093,-0.3108,-0.3132,-0.3149,-0.3172,-0.3222,-0.3226,-0.3246,-0.3252,-0.3258,-0.3264,-0.3292,-0.3302,-0.3202,-0.3202,-0.3202,0,0,-0.2999,-0.3008,-0.3024,-0.3053,-0.3063,-0.309,-0.306,-0.309,-0.311,-0.309,-0.3129,-0.3135,-0.3151,-0.3197,-0.3218,-0.3204,-0.3292,-0.3263,-0.3268,-0.3271,-0.3297,-0.3307,-0.3315,-0.3205,-0.3205,-0.3204,0,0,-0.3061,-0.307,-0.3105,-0.3116,-0.3131,-0.3131,-0.314,-0.3152,-0.3156,-0.3194,-0.318,-0.3203,-0.3245,-0.3258,-0.327,-0.3335,-0.3324,-0.3342,-0.3379,-0.3407,-0.3415,-0.3421,-0.3447,-0.3456,-0.3348,-0.3348,-0.3348,0,-0.3093,-0.3132,-0.3125,-0.3155,-0.3169,-0.315,-0.3186,-0.3197,-0.3219,-0.3229,-0.3213,-0.3266,-0.3275,-0.3324,-0.334,-0.335,-0.336,-0.3342,-0.3414,-0.3421,-0.3427,-0.3451,-0.346,-0.335,-0.335,-0.335,-0.335,0,-0.3171,-0.3198,-0.3225,-0.3247,-0.3262,-0.3296,-0.3293,-0.331,-0.3304,-0.3306,-0.3345,-0.3356,-0.3381,-0.3391,-0.3385,-0.344,-0.3431,-0.3414,-0.3387,-0.3439,-0.3462,-0.3471,-0.3354,-0.3353,-0.3352,-0.3352,0,0,-0.3257,-0.3273,-0.3283,-0.3293,-0.3308,-0.3329,-0.3361,-0.3385,-0.3401,-0.3416,-0.3444,-0.3479,-0.3464,-0.3477,-0.3472,-0.3496,-0.3549,-0.3476,-0.3476,-0.3491,-0.3611,-0.3626,-0.3636,-0.354,-0.3542,-0.3543,-0.361,0,-0.3322,-0.3378,-0.3371,-0.3425,-0.3451,-0.3432,-0.346,-0.3473,-0.3475,-0.3498,-0.35,-0.3526,-0.3503,-0.3511,-0.3533,-0.3538,-0.3573,-0.3532,-0.3568,-0.3569,-0.3567,-0.3648,-0.3663,-0.3727,-0.3619,-0.362,-0.3621,0,-0.3406,-0.3424,-0.348,-0.3491,-0.3502,-0.3527,-0.3549,-0.357,-0.3583,-0.3583,-0.3598,-0.3588,-0.3621,-0.359,-0.3636,-0.3608,-0.3622,-0.3626,-0.3628,-0.3634,-0.3601,-0.3658,-0.3746,-0.3757,-0.3635,-0.3634,-0.3633,0,-0.3466,-0.3504,-0.3543,-0.3551,-0.3565,-0.3583,-0.359,-0.3601,-0.3616,-0.3634,-0.3644,-0.3666,-0.3678,-0.3696,-0.3692,-0.367,-0.374,-0.3708,-0.3742,-0.3742,-0.376,-0.3759,-0.3855,-0.3764,-0.3764,-0.3764,-0.3763,0,-0.3541,-0.3577,-0.357,-0.3595,-0.3634,-0.3625,-0.3665,-0.3669,-0.3679,-0.3704,-0.3688,-0.3713,-0.3705,-0.3729,-0.3726,-0.3765,-0.377,-0.3772,-0.3772,-0.3775,-0.3776,-0.3787,-0.3783,-0.3766,-0.3766,-0.3765,-0.3765,0,-0.3616,-0.3613,-0.3655,-0.3663,-0.3666,-0.3695,-0.3702,-0.3725,-0.3725,-0.3757,-0.3764,-0.3765,-0.3792,-0.3789,-0.3819,-0.3817,-0.3866,-0.3859,-0.3862,-0.3862,-0.3896,-0.3894,-0.4004,-0.4019,-0.3916,-0.3917,-0.3918,0,-0.3666,-0.3693,-0.3704,-0.3719,-0.3727,-0.3751,-0.3766,-0.3758,-0.3774,-0.3791,-0.3812,-0.3837,-0.3857,-0.3901,-0.3905,-0.3928,-0.3923,-0.3959,-0.3926,-0.3929,-0.3926,-0.3926,-0.3929,-0.3967,-0.3968,-0.3969,-0.397,0,-0.3754,-0.3751,-0.3773,-0.3794,-0.3811,-0.3827,-0.3842,-0.3855,-0.3849,-0.3867,-0.3894,-0.391,-0.394,-0.3966,-0.3988,-0.3995,-0.3982,-0.398,-0.3989,-0.3995,-0.3997,-0.3998,-0.3883,-0.3978,-0.3977,-0.3977,-0.3976,-0.3976,-0.382,-0.3844,-0.3855,-0.3879,-0.3889,-0.3903,-0.3925,-0.3927,-0.3949,-0.3973,-0.3967,-0.3998,-0.401,-0.4038,-0.4046,-0.4071,-0.4058,-0.4071,-0.4075,-0.4079,-0.4084,-0.399,-0.4074,-0.4074,-0.4074,-0.4074,-0.4074,0,-0.391,-0.3916,-0.3938,-0.3959,-0.3978,-0.3962,-0.3977,-0.3995,-0.4022,-0.4034,-0.4054,-0.4085,-0.411,-0.4114,-0.4138,-0.4156,-0.4151,-0.4163,-0.4163,-0.4165,-0.4093,-0.4084,-0.4167,-0.4167,-0.4167,-0.4167,-0.4167,-0.4167,-0.3959,-0.3999,-0.3997,-0.404,-0.4046,-0.4076,-0.4086,-0.4099,-0.4109,-0.4144,-0.4164,-0.4166,-0.4176,-0.4199,-0.4221,-0.4222,-0.4233,-0.4247,-0.4246,-0.4179,-0.417,-0.4161,-0.4153,-0.4249,-0.4249,-0.4316,-0.4317,-0.4318]}]]